BEL4KY EDDF-EBBR

Flight info

Callsign BEL4KY
Flight time 0h 33m
Altitude 22000
Route SOBRA2L/18 SOBRA Y180 BITBU Y181 GOPAS N852 LNO
Aircraft A320/M-SDE3FGHIRWY/LB1

Departure

Time 2026-05-06 16:42
Airport Frankfurt Main Airport (EDDF)

Arrival

Time 2026-05-06 17:15
Airport Brussels Airport (EBBR)
Time Latitude Longitude Altitude Speed Heading
2026-05-06 16:14 50.04785 8.58342 362 ft 0 kts 159°
2026-05-06 16:25 50.04793 8.58337 364 ft 4 kts 161°
2026-05-06 16:25 50.04819 8.58326 365 ft 4 kts 173°
2026-05-06 16:25 50.04846 8.58326 360 ft 4 kts 193°
2026-05-06 16:26 50.04868 8.58342 364 ft 4 kts 233°
2026-05-06 16:26 50.04875 8.58360 366 ft 1 kts 252°
2026-05-06 16:26 50.04875 8.58362 366 ft 0 kts 252°
2026-05-06 16:30 50.04874 8.58358 366 ft 3 kts 250°
2026-05-06 16:30 50.04824 8.58226 362 ft 15 kts 249°
2026-05-06 16:30 50.04788 8.58087 363 ft 13 kts 250°
2026-05-06 16:31 50.04746 8.57948 362 ft 15 kts 232°
2026-05-06 16:31 50.04684 8.57811 362 ft 16 kts 249°
2026-05-06 16:31 50.04647 8.57637 359 ft 17 kts 250°
2026-05-06 16:31 50.04603 8.57453 359 ft 19 kts 249°
2026-05-06 16:32 50.04554 8.57256 363 ft 20 kts 250°
2026-05-06 16:32 50.04505 8.57048 358 ft 21 kts 250°
2026-05-06 16:32 50.04454 8.56838 361 ft 21 kts 250°
2026-05-06 16:32 50.04401 8.56619 359 ft 23 kts 250°
2026-05-06 16:33 50.04345 8.56383 358 ft 24 kts 251°
2026-05-06 16:33 50.04286 8.56135 356 ft 25 kts 249°
2026-05-06 16:33 50.04224 8.55878 360 ft 26 kts 249°
2026-05-06 16:34 50.04096 8.55340 360 ft 27 kts 250°
2026-05-06 16:34 50.04033 8.55076 360 ft 26 kts 250°
2026-05-06 16:34 50.03972 8.54821 356 ft 25 kts 250°
2026-05-06 16:34 50.03913 8.54571 350 ft 24 kts 250°
2026-05-06 16:35 50.03844 8.54337 348 ft 23 kts 237°
2026-05-06 16:35 50.03774 8.54122 349 ft 21 kts 249°
2026-05-06 16:35 50.03724 8.53911 349 ft 20 kts 249°
2026-05-06 16:35 50.03675 8.53705 347 ft 21 kts 251°
2026-05-06 16:36 50.03623 8.53501 341 ft 20 kts 249°
2026-05-06 16:36 50.03592 8.53369 337 ft 19 kts 249°
2026-05-06 16:36 50.03545 8.53175 334 ft 19 kts 250°
2026-05-06 16:36 50.03503 8.52999 335 ft 9 kts 249°
2026-05-06 16:37 50.03488 8.52935 334 ft 5 kts 249°
2026-05-06 16:37 50.03482 8.52913 337 ft 0 kts 249°
2026-05-06 16:37 50.03482 8.52911 337 ft 0 kts 249°
2026-05-06 16:37 50.03478 8.52897 337 ft 5 kts 249°
2026-05-06 16:38 50.03450 8.52792 336 ft 15 kts 246°
2026-05-06 16:38 50.03441 8.52758 333 ft 0 kts 248°
2026-05-06 16:40 50.03441 8.52757 336 ft 0 kts 248°
2026-05-06 16:40 50.03431 8.52719 332 ft 7 kts 249°
2026-05-06 16:40 50.03406 8.52636 333 ft 9 kts 241°
2026-05-06 16:40 50.03364 8.52594 335 ft 2 kts 187°
2026-05-06 16:41 50.03360 8.52594 336 ft 5 kts 185°
2026-05-06 16:41 50.03156 8.52587 336 ft 70 kts 180°
2026-05-06 16:41 50.02352 8.52602 334 ft 158 kts 179°
2026-05-06 16:42 50.01086 8.52631 797 ft 189 kts 180°
2026-05-06 16:42 49.99750 8.52674 1806 ft 201 kts 181°
2026-05-06 16:42 49.98261 8.52755 2197 ft 226 kts 181°
2026-05-06 16:42 49.96667 8.52884 3017 ft 231 kts 179°
2026-05-06 16:43 49.95058 8.53009 3708 ft 233 kts 181°
2026-05-06 16:43 49.93449 8.53083 4022 ft 231 kts 181°
2026-05-06 16:43 49.91862 8.53144 4930 ft 227 kts 181°
2026-05-06 16:43 49.90284 8.53212 5843 ft 228 kts 181°
2026-05-06 16:44 49.88676 8.53290 6630 ft 233 kts 181°
2026-05-06 16:44 49.87041 8.53220 7319 ft 243 kts 193°
2026-05-06 16:44 49.85454 8.52128 7771 ft 260 kts 220°
2026-05-06 16:44 49.84346 8.49876 8421 ft 270 kts 249°
2026-05-06 16:45 49.84139 8.46963 9180 ft 281 kts 272°
2026-05-06 16:45 49.84291 8.43950 10087 ft 283 kts 273°
2026-05-06 16:45 49.84454 8.40815 10576 ft 303 kts 273°
2026-05-06 16:45 49.84614 8.37446 10964 ft 325 kts 272°
2026-05-06 16:46 49.84755 8.33892 11606 ft 335 kts 271°
2026-05-06 16:46 49.84856 8.30257 12503 ft 338 kts 270°
2026-05-06 16:46 49.84978 8.26611 13395 ft 344 kts 277°
2026-05-06 16:46 49.85731 8.23060 14105 ft 353 kts 296°
2026-05-06 16:47 49.86956 8.19736 14854 ft 357 kts 298°
2026-05-06 16:47 49.88179 8.16365 15601 ft 360 kts 297°
2026-05-06 16:47 49.89394 8.12948 16303 ft 364 kts 297°
2026-05-06 16:47 49.90640 8.09498 16952 ft 368 kts 297°
2026-05-06 16:48 49.91907 8.06014 17600 ft 373 kts 297°
2026-05-06 16:48 49.93187 8.02501 18258 ft 376 kts 297°
2026-05-06 16:48 49.94481 7.98942 18867 ft 380 kts 297°
2026-05-06 16:48 49.95778 7.95352 19489 ft 383 kts 296°
2026-05-06 16:49 49.97077 7.91725 20083 ft 386 kts 296°
2026-05-06 16:49 49.98386 7.88056 20677 ft 389 kts 296°
2026-05-06 16:49 49.99689 7.84354 21117 ft 392 kts 296°
2026-05-06 16:49 50.00972 7.80623 21377 ft 392 kts 296°
2026-05-06 16:50 50.02251 7.76850 21654 ft 396 kts 295°
2026-05-06 16:50 50.03527 7.73073 21794 ft 394 kts 296°
2026-05-06 16:50 50.04805 7.69302 21822 ft 394 kts 296°
2026-05-06 16:50 50.06110 7.65459 21824 ft 409 kts 296°
2026-05-06 16:51 50.07465 7.61485 21824 ft 423 kts 296°
2026-05-06 16:51 50.08864 7.57374 21823 ft 436 kts 296°
2026-05-06 16:51 50.10291 7.53173 21820 ft 441 kts 296°
2026-05-06 16:51 50.11727 7.48945 21829 ft 442 kts 296°
2026-05-06 16:52 50.13165 7.44709 21829 ft 442 kts 296°
2026-05-06 16:52 50.14601 7.40463 21831 ft 443 kts 296°
2026-05-06 16:52 50.16032 7.36220 21832 ft 442 kts 296°
2026-05-06 16:52 50.17456 7.31981 21836 ft 441 kts 296°
2026-05-06 16:53 50.18877 7.27745 21833 ft 441 kts 296°
2026-05-06 16:53 50.20298 7.23509 21841 ft 440 kts 295°
2026-05-06 16:53 50.21711 7.19291 21844 ft 438 kts 295°
2026-05-06 16:53 50.23119 7.15071 21843 ft 438 kts 295°
2026-05-06 16:54 50.24523 7.10863 21840 ft 437 kts 295°
2026-05-06 16:54 50.25931 7.06648 21837 ft 437 kts 295°
2026-05-06 16:54 50.27338 7.02436 21829 ft 437 kts 295°
2026-05-06 16:54 50.28725 6.98273 21835 ft 438 kts 295°
2026-05-06 16:55 50.30123 6.94053 21836 ft 438 kts 295°
2026-05-06 16:55 50.31518 6.89821 21843 ft 438 kts 295°
2026-05-06 16:55 50.32914 6.85582 21840 ft 438 kts 295°
2026-05-06 16:55 50.34313 6.81343 21838 ft 438 kts 295°
2026-05-06 16:56 50.35711 6.77105 21838 ft 439 kts 295°
2026-05-06 16:56 50.37110 6.72858 21835 ft 438 kts 295°
2026-05-06 16:56 50.38504 6.68612 21838 ft 438 kts 295°
2026-05-06 16:56 50.39898 6.64360 21839 ft 439 kts 295°
2026-05-06 16:57 50.41288 6.60106 21836 ft 438 kts 295°
2026-05-06 16:57 50.42675 6.55856 21850 ft 438 kts 295°
2026-05-06 16:57 50.44064 6.51599 21846 ft 438 kts 295°
2026-05-06 16:57 50.45450 6.47349 21842 ft 438 kts 295°
2026-05-06 16:58 50.46837 6.43085 21829 ft 438 kts 295°
2026-05-06 16:58 50.48219 6.38815 21826 ft 438 kts 295°
2026-05-06 16:58 50.49566 6.34647 21843 ft 417 kts 296°
2026-05-06 16:58 50.50847 6.30670 21859 ft 402 kts 295°
2026-05-06 16:59 50.52098 6.26763 21861 ft 397 kts 295°
2026-05-06 16:59 50.53334 6.22890 21857 ft 396 kts 295°
2026-05-06 16:59 50.54550 6.19068 21611 ft 386 kts 295°
2026-05-06 16:59 50.55736 6.15329 21349 ft 380 kts 295°
2026-05-06 17:00 50.56907 6.11622 21107 ft 377 kts 295°
2026-05-06 17:00 50.58063 6.07966 20743 ft 371 kts 295°
2026-05-06 17:00 50.59206 6.04347 20279 ft 368 kts 296°
2026-05-06 17:00 50.60341 6.00754 19795 ft 365 kts 295°
2026-05-06 17:01 50.61467 5.97188 19313 ft 363 kts 296°
2026-05-06 17:01 50.62588 5.93637 18847 ft 361 kts 295°
2026-05-06 17:01 50.63701 5.90109 18358 ft 359 kts 295°
2026-05-06 17:01 50.64808 5.86598 17837 ft 357 kts 296°
2026-05-06 17:02 50.65907 5.83103 17351 ft 354 kts 295°
2026-05-06 17:02 50.66990 5.79646 16880 ft 350 kts 296°
2026-05-06 17:02 50.68063 5.76215 16417 ft 347 kts 296°
2026-05-06 17:02 50.69126 5.72811 15954 ft 344 kts 296°
2026-05-06 17:03 50.70178 5.69437 15502 ft 341 kts 296°
2026-05-06 17:03 50.71222 5.66090 15050 ft 339 kts 296°
2026-05-06 17:03 50.72258 5.62764 14602 ft 337 kts 296°
2026-05-06 17:03 50.73285 5.59459 14148 ft 335 kts 297°
2026-05-06 17:04 50.74306 5.56166 13692 ft 333 kts 297°
2026-05-06 17:04 50.75321 5.52888 13218 ft 332 kts 297°
2026-05-06 17:04 50.76333 5.49619 12754 ft 330 kts 297°
2026-05-06 17:04 50.77336 5.46368 12291 ft 329 kts 297°
2026-05-06 17:05 50.78336 5.43126 11826 ft 327 kts 297°
2026-05-06 17:05 50.79327 5.39908 11370 ft 324 kts 297°
2026-05-06 17:05 50.80310 5.36713 10891 ft 322 kts 297°
2026-05-06 17:05 50.81284 5.33542 10432 ft 320 kts 297°
2026-05-06 17:06 50.82246 5.30420 10199 ft 310 kts 297°
2026-05-06 17:06 50.83169 5.27419 10082 ft 298 kts 297°
2026-05-06 17:06 50.84057 5.24524 9881 ft 289 kts 297°
2026-05-06 17:06 50.84924 5.21691 9701 ft 284 kts 297°
2026-05-06 17:07 50.85766 5.18932 9353 ft 281 kts 297°
2026-05-06 17:07 50.86614 5.16154 8955 ft 279 kts 297°
2026-05-06 17:07 50.87454 5.13403 8589 ft 276 kts 297°
2026-05-06 17:07 50.88286 5.10691 8223 ft 273 kts 297°
2026-05-06 17:08 50.89107 5.08001 7846 ft 270 kts 297°
2026-05-06 17:08 50.89919 5.05337 7466 ft 268 kts 297°
2026-05-06 17:08 50.90723 5.02693 7103 ft 266 kts 297°
2026-05-06 17:08 50.91521 5.00062 6733 ft 264 kts 297°
2026-05-06 17:09 50.92310 4.97463 6276 ft 259 kts 297°
2026-05-06 17:09 50.93086 4.94898 5575 ft 257 kts 297°
2026-05-06 17:09 50.93853 4.92350 4905 ft 255 kts 297°
2026-05-06 17:09 50.94614 4.89830 4216 ft 253 kts 297°
2026-05-06 17:10 50.95364 4.87339 3813 ft 246 kts 297°
2026-05-06 17:10 50.96078 4.84950 3667 ft 234 kts 297°
2026-05-06 17:10 50.96760 4.82668 3545 ft 223 kts 298°
2026-05-06 17:10 50.97410 4.80494 3409 ft 213 kts 298°
2026-05-06 17:11 50.98038 4.78388 3202 ft 210 kts 295°
2026-05-06 17:11 50.98342 4.76128 2996 ft 212 kts 272°
2026-05-06 17:11 50.98049 4.73824 2805 ft 216 kts 249°
2026-05-06 17:11 50.97413 4.71658 2710 ft 218 kts 248°
2026-05-06 17:12 50.96780 4.69477 2588 ft 217 kts 248°
2026-05-06 17:12 50.96154 4.67307 2483 ft 214 kts 249°
2026-05-06 17:12 50.95539 4.65185 2225 ft 211 kts 249°
2026-05-06 17:12 50.94929 4.63072 1929 ft 210 kts 249°
2026-05-06 17:13 50.94334 4.61007 1668 ft 199 kts 249°
2026-05-06 17:13 50.93782 4.59082 1412 ft 185 kts 249°
2026-05-06 17:13 50.93279 4.57282 1133 ft 169 kts 250°
2026-05-06 17:13 50.92813 4.55671 954 ft 155 kts 249°
2026-05-06 17:14 50.92374 4.54141 735 ft 151 kts 249°
2026-05-06 17:14 50.91951 4.52627 526 ft 150 kts 249°
2026-05-06 17:14 50.91493 4.51119 313 ft 153 kts 247°
2026-05-06 17:14 50.91056 4.49591 121 ft 152 kts 247°
2026-05-06 17:15 50.90688 4.48306 121 ft 102 kts 245°
2026-05-06 17:15 50.90464 4.47546 123 ft 52 kts 248°
2026-05-06 17:15 50.90330 4.47063 124 ft 36 kts 243°
2026-05-06 17:15 50.90241 4.46935 128 ft 14 kts 162°
2026-05-06 17:16 50.90191 4.47045 125 ft 4 kts 115°
2026-05-06 17:17 50.90180 4.47080 127 ft 7 kts 116°
2026-05-06 17:17 50.90149 4.47180 123 ft 13 kts 116°
2026-05-06 17:17 50.90144 4.47344 123 ft 18 kts 68°
2026-05-06 17:18 50.90203 4.47548 119 ft 22 kts 65°
2026-05-06 17:18 50.90268 4.47774 118 ft 23 kts 66°
2026-05-06 17:18 50.90334 4.48005 120 ft 23 kts 64°
2026-05-06 17:18 50.90401 4.48241 118 ft 24 kts 64°
2026-05-06 17:19 50.90455 4.48426 118 ft 10 kts 65°
2026-05-06 17:19 50.90432 4.48509 119 ft 5 kts 149°
2026-05-06 17:19 50.90415 4.48521 121 ft 3 kts 155°
2026-05-06 17:19 50.90398 4.48534 119 ft 0 kts 155°
2026-05-06 17:20 50.90390 4.48539 119 ft 0 kts 155°
2026-05-06 17:20 50.90388 4.48541 119 ft 0 kts 155°